[[{"header":{"parameterUnit":"m.s-1","parameterCategory":1,"la1":30.2991,"la2":30.254,"lo1":-89.0895,"lo2":-89.0444,"dy":0.0017,"dx":0.0017,"nx":28,"ny":28,"refTime":"2023-08-01T09:00:00:Z","depth":0,"parameterNumber":2,"parameterNumberName":"U-component_of_WINDS"},"data":[0,0,0,0,0,0,0,0,0,0,0,0,0,0,0,0,0,0,0,0,0,0,0,0,0,0,0,0,0,0,0,0,0,0,0,0,0,0,0,0,0,0,0,0,0,0,0,0,0,0,0,0,0,0,0,0,0,0,1.6578,1.6577,0,1.6508,1.6507,1.6506,1.6382,1.638,1.6377,1.6375,1.6304,1.6305,1.6305,0,0,0,0,0,0,0,0,0,0,0,0,0,1.6608,1.6608,1.6578,1.6577,1.6576,1.6508,1.6507,1.6506,1.6382,1.638,1.6377,1.6374,1.6304,1.6305,1.6305,0,0,0,0,0,0,0,0,0,0,0,0,0,1.6572,1.6608,1.6578,1.6507,1.6499,1.6508,1.6507,1.6506,1.6383,1.6379,1.6376,1.6373,1.6304,1.6305,1.6305,1.6378,0,0,1.6306,1.6307,0,0,0,0,0,0,0,0,1.6574,1.6571,1.6518,1.6511,1.6503,1.645,1.6491,1.6463,1.6384,1.6427,1.6375,1.6371,1.6356,1.6352,1.6346,1.6375,1.6372,1.6307,1.6307,1.6307,1.6307,0,0,0,0,0,0,0,1.6577,1.6573,1.655,1.6517,1.6509,1.6478,1.6469,1.6485,1.6412,1.6423,1.6414,1.6407,1.6351,1.6346,1.6344,1.6371,1.6307,1.6307,1.6307,1.6307,1.6457,1.6461,0,0,0,0,0,0,1.659,1.6576,1.6552,1.6548,1.6531,1.6481,1.6471,1.6471,1.6412,1.6399,1.641,1.6402,1.6347,1.6343,1.6341,1.6423,1.6307,1.6307,1.6308,1.6453,1.6458,1.6462,0,0,0,0,0,0,1.6591,1.6589,1.6555,1.656,1.6553,1.6484,1.6485,1.6471,1.6466,1.6402,1.6388,1.6419,1.6344,1.634,1.637,1.6419,1.6308,1.6308,1.6449,1.6455,1.646,1.6589,0,0,0,0,0,0,1.6592,1.659,1.6617,1.6561,1.6553,1.6586,1.6488,1.6472,1.6467,1.6455,1.6406,1.6395,1.6341,1.637,1.6371,1.6418,1.6308,1.6444,1.6452,1.6458,1.658,1.6599,1.6614,0,0,0,0,0,1.6594,1.6656,1.6619,1.6616,1.6585,1.6589,1.6584,1.6521,1.6471,1.6498,1.6457,1.6396,1.6414,1.6374,1.6374,1.6422,1.6441,1.645,1.6458,1.6573,1.6595,1.6614,0,0,0,0,0,0,1.672,1.6647,1.6605,1.6651,1.6627,1.6568,1.66,1.6547,1.6536,1.6526,1.6448,1.6438,1.6478,1.6453,1.641,1.649,1.6418,1.6427,1.6505,1.6526,1.6543,1.6548,1.6309,0,0,0,0,0,1.6753,1.6761,1.6698,1.6745,1.6735,1.667,1.6669,1.6622,1.6594,1.6583,1.6544,1.652,1.6519,1.6521,1.6517,1.6576,1.6564,1.6609,1.6626,1.664,1.6648,1.6678,1.6698,1.6489,1.6489,1.6489,0,0,1.6821,1.6783,1.6793,1.6769,1.6745,1.6756,1.6662,1.6677,1.6685,1.6586,1.6612,1.6582,1.655,1.6595,1.6612,1.6575,1.6703,1.665,1.6662,1.6663,1.6689,1.6708,1.6726,1.6495,1.6494,1.6493,0,0,1.6952,1.6924,1.696,1.6938,1.6902,1.6858,1.6867,1.6816,1.6792,1.6817,1.6743,1.6751,1.6752,1.6732,1.6723,1.6846,1.679,1.6847,1.6936,1.6966,1.6982,1.6997,1.7042,1.7059,1.6856,1.6856,1.6857,0,1.7042,1.7055,1.6986,1.7006,1.6998,1.6908,1.6945,1.6926,1.6892,1.6889,1.6846,1.6846,1.6818,1.6857,1.6888,1.6882,1.6891,1.6853,1.6986,1.6999,1.7011,1.7053,1.7071,1.6864,1.6863,1.6862,1.6861,0,1.7168,1.7179,1.7212,1.7181,1.7176,1.7205,1.714,1.7144,1.7098,1.7059,1.7086,1.7049,1.7036,1.7042,1.6997,1.7075,1.7053,1.7,1.6926,1.704,1.7078,1.7093,1.6874,1.6871,1.6869,1.6867,0,0,1.7377,1.7307,1.732,1.7305,1.7259,1.7266,1.7291,1.7278,1.7284,1.7263,1.7282,1.7285,1.7235,1.7224,1.7176,1.7203,1.7304,1.7145,1.7144,1.7177,1.7389,1.743,1.745,1.7266,1.7269,1.7271,1.7392,0,1.7499,1.7537,1.7475,1.7528,1.7537,1.7451,1.7473,1.7448,1.7412,1.7415,1.7375,1.7379,1.7313,1.7306,1.7328,1.7287,1.7346,1.7278,1.7284,1.7286,1.7296,1.747,1.7513,1.7629,1.7406,1.7409,1.7411,0,1.7647,1.7633,1.7687,1.7638,1.7639,1.766,1.7643,1.7647,1.7616,1.7589,1.7577,1.752,1.7541,1.7469,1.7498,1.7453,1.7452,1.7433,1.7436,1.7435,1.7356,1.7475,1.7664,1.7683,1.7433,1.7432,1.743,0,1.7795,1.779,1.7821,1.7811,1.7754,1.7771,1.7748,1.7714,1.7711,1.7696,1.7693,1.7682,1.7677,1.767,1.7611,1.7564,1.7648,1.7571,1.7626,1.7628,1.7648,1.7648,1.7842,1.7647,1.7646,1.7646,1.7646,0,1.7938,1.7975,1.7887,1.7907,1.7945,1.7874,1.7914,1.7882,1.7853,1.7865,1.7791,1.7804,1.7726,1.7731,1.7685,1.7717,1.7715,1.7693,1.7681,1.7701,1.7704,1.77,1.7691,1.765,1.7649,1.7649,1.7648,0,1.8111,1.8054,1.8082,1.8026,1.8013,1.8044,1.7996,1.8013,1.7972,1.7989,1.7988,1.7925,1.7927,1.7868,1.7858,1.7828,1.788,1.7852,1.789,1.7882,1.7941,1.7937,1.814,1.8163,1.7953,1.7955,1.7957,0,1.8207,1.8233,1.818,1.8182,1.8163,1.8169,1.8164,1.8095,1.8094,1.8062,1.8082,1.8078,1.8071,1.8079,1.8032,1.8024,1.7997,1.8069,1.7995,1.8015,1.7999,1.7999,1.8002,1.8085,1.8087,1.8089,1.8091,0,1.8383,1.8353,1.835,1.8338,1.8335,1.8322,1.8304,1.831,1.8235,1.8238,1.8239,1.8233,1.8223,1.8221,1.8204,1.8181,1.8125,1.8114,1.8127,1.8148,1.8169,1.8159,1.7933,1.811,1.8108,1.8107,1.8106,1.8105,1.8521,1.854,1.8506,1.8505,1.8484,1.8469,1.8482,1.8442,1.8442,1.8428,1.8387,1.8396,1.8365,1.8337,1.8319,1.8325,1.8289,1.8307,1.8312,1.8318,1.8329,1.8168,1.8321,1.8321,1.832,1.8319,1.8319,0,1.8694,1.8668,1.8668,1.8645,1.8644,1.859,1.8567,1.8571,1.8579,1.8555,1.8549,1.8551,1.8548,1.8501,1.8493,1.8507,1.848,1.8507,1.8506,1.8501,1.8361,1.8351,1.8528,1.8528,1.8528,1.8528,1.8528,1.8528,1.8784,1.8814,1.8781,1.88,1.8773,1.878,1.8772,1.8758,1.8739,1.8744,1.8741,1.871,1.8677,1.8665,1.8661,1.8647,1.8648,1.8683,1.8661,1.8531,1.8511,1.8492,1.8483,1.8684,1.8684,1.8801,1.8802,1.8803]},{"header":{"parameterUnit":"m.s-1","parameterCategory":1,"la1":30.2991,"la2":30.254,"lo1":-89.0895,"lo2":-89.0444,"dy":0.0017,"dx":0.0017,"nx":28,"ny":28,"refTime":"2023-08-01T09:00:00:Z","depth":0,"parameterNumber":3,"parameterNumberName":"V-component_of_WINDS"},"data":[0,0,0,0,0,0,0,0,0,0,0,0,0,0,0,0,0,0,0,0,0,0,0,0,0,0,0,0,0,0,0,0,0,0,0,0,0,0,0,0,0,0,0,0,0,0,0,0,0,0,0,0,0,0,0,0,0,0,-1.8627,-1.8628,0,-1.8694,-1.8694,-1.8695,-1.8683,-1.8682,-1.8681,-1.868,-1.8747,-1.8749,-1.8752,0,0,0,0,0,0,0,0,0,0,0,0,0,-1.849,-1.8493,-1.8627,-1.8628,-1.8629,-1.8693,-1.8694,-1.8695,-1.8683,-1.8682,-1.868,-1.8679,-1.8746,-1.8749,-1.8752,0,0,0,0,0,0,0,0,0,0,0,0,0,-1.8552,-1.8494,-1.8627,-1.8631,-1.8632,-1.8693,-1.8694,-1.8695,-1.8684,-1.8682,-1.868,-1.8678,-1.8744,-1.8749,-1.8753,-1.8815,0,0,-1.8766,-1.8768,0,0,0,0,0,0,0,0,-1.8549,-1.8557,-1.8629,-1.8631,-1.8632,-1.8678,-1.8671,-1.8735,-1.8684,-1.8664,-1.868,-1.8678,-1.8725,-1.8731,-1.8747,-1.8818,-1.8821,-1.8766,-1.8769,-1.8771,-1.8772,0,0,0,0,0,0,0,-1.8545,-1.8555,-1.8654,-1.8631,-1.8632,-1.8629,-1.8636,-1.8683,-1.8704,-1.8665,-1.8665,-1.8673,-1.8725,-1.8743,-1.8749,-1.8822,-1.8766,-1.877,-1.8773,-1.8775,-1.8947,-1.8949,0,0,0,0,0,0,-1.8539,-1.8551,-1.8651,-1.8655,-1.8585,-1.8633,-1.8641,-1.8665,-1.8703,-1.8707,-1.8674,-1.8672,-1.8737,-1.8744,-1.8751,-1.8826,-1.8771,-1.8775,-1.8777,-1.8945,-1.8947,-1.8949,0,0,0,0,0,0,-1.8536,-1.8548,-1.8649,-1.8603,-1.8616,-1.8637,-1.8665,-1.8667,-1.8685,-1.871,-1.8713,-1.8688,-1.8735,-1.8745,-1.8799,-1.8828,-1.8777,-1.8781,-1.8943,-1.8946,-1.8948,-1.8977,0,0,0,0,0,0,-1.8532,-1.8547,-1.8571,-1.8604,-1.8618,-1.8696,-1.8667,-1.867,-1.8693,-1.869,-1.8724,-1.8728,-1.8735,-1.8793,-1.8803,-1.8833,-1.8784,-1.894,-1.8944,-1.8947,-1.8974,-1.8981,-1.8987,0,0,0,0,0,-1.8528,-1.8576,-1.8572,-1.8585,-1.8648,-1.8698,-1.8706,-1.8713,-1.8695,-1.8719,-1.8735,-1.8727,-1.8823,-1.8798,-1.881,-1.8842,-1.8938,-1.8943,-1.8947,-1.8971,-1.8979,-1.8987,0,0,0,0,0,0,-1.8546,-1.8581,-1.8577,-1.8637,-1.8665,-1.8696,-1.8726,-1.8722,-1.8755,-1.8751,-1.8759,-1.8767,-1.8822,-1.8837,-1.8809,-1.8904,-1.8878,-1.8885,-1.8892,-1.8901,-1.8907,-1.8902,-1.8788,0,0,0,0,0,-1.8557,-1.8595,-1.8623,-1.8674,-1.8688,-1.8705,-1.8726,-1.873,-1.8758,-1.877,-1.8789,-1.8817,-1.8854,-1.8878,-1.8913,-1.8976,-1.8983,-1.9004,-1.901,-1.9015,-1.9021,-1.9056,-1.9066,-1.8964,-1.8964,-1.8964,0,0,-1.8581,-1.8604,-1.8627,-1.8678,-1.87,-1.8738,-1.8714,-1.8756,-1.8785,-1.8776,-1.8829,-1.8844,-1.8876,-1.8935,-1.8961,-1.8949,-1.9051,-1.9021,-1.9025,-1.9028,-1.9062,-1.9072,-1.908,-1.8967,-1.8967,-1.8966,0,0,-1.8644,-1.8665,-1.871,-1.8732,-1.8765,-1.8776,-1.8787,-1.8819,-1.8829,-1.8882,-1.8876,-1.891,-1.8973,-1.8996,-1.9016,-1.9088,-1.9082,-1.9099,-1.9133,-1.9167,-1.9175,-1.9183,-1.9209,-1.9218,-1.9105,-1.9105,-1.9105,0,-1.8669,-1.8727,-1.8733,-1.8776,-1.8799,-1.8793,-1.8838,-1.886,-1.8902,-1.8918,-1.8904,-1.8983,-1.9004,-1.9068,-1.9086,-1.9102,-1.9115,-1.9095,-1.9174,-1.9181,-1.9188,-1.9213,-1.9223,-1.9107,-1.9107,-1.9107,-1.9106,0,-1.8756,-1.8796,-1.8829,-1.8871,-1.8897,-1.8941,-1.8954,-1.898,-1.8981,-1.8993,-1.9048,-1.9072,-1.9113,-1.9128,-1.9129,-1.9193,-1.9184,-1.9172,-1.9146,-1.9199,-1.9223,-1.9233,-1.911,-1.9109,-1.9109,-1.9108,0,0,-1.8832,-1.8878,-1.889,-1.8909,-1.8945,-1.8976,-1.902,-1.906,-1.9082,-1.9111,-1.9148,-1.9202,-1.9191,-1.9213,-1.9217,-1.9247,-1.9303,-1.9231,-1.9232,-1.9244,-1.9375,-1.9385,-1.9396,-1.9299,-1.9301,-1.9302,-1.9373,0,-1.8899,-1.8976,-1.8984,-1.9053,-1.9091,-1.9086,-1.9124,-1.915,-1.9163,-1.9197,-1.9211,-1.9249,-1.9231,-1.9245,-1.9274,-1.929,-1.9329,-1.9285,-1.9334,-1.9335,-1.9326,-1.9408,-1.9418,-1.9484,-1.9382,-1.9384,-1.9385,0,-1.8986,-1.9019,-1.9092,-1.9124,-1.914,-1.9174,-1.9212,-1.9244,-1.9274,-1.9281,-1.9306,-1.9306,-1.9351,-1.9324,-1.9386,-1.9356,-1.9376,-1.9387,-1.939,-1.9395,-1.9364,-1.9416,-1.9505,-1.9515,-1.9399,-1.9398,-1.9397,0,-1.9035,-1.9098,-1.915,-1.9166,-1.9204,-1.9228,-1.9245,-1.9274,-1.9297,-1.933,-1.9345,-1.9382,-1.9403,-1.9432,-1.9442,-1.942,-1.9504,-1.9477,-1.9511,-1.9511,-1.953,-1.9528,-1.9623,-1.9542,-1.9542,-1.9542,-1.9541,0,-1.9109,-1.9154,-1.9172,-1.9205,-1.9255,-1.9263,-1.9313,-1.9329,-1.9354,-1.9389,-1.9387,-1.9419,-1.9431,-1.9465,-1.9473,-1.9524,-1.9533,-1.9541,-1.9542,-1.9541,-1.9541,-1.9555,-1.9551,-1.9544,-1.9544,-1.9543,-1.9543,0,-1.9173,-1.9187,-1.9243,-1.9274,-1.9283,-1.9319,-1.9346,-1.9377,-1.939,-1.9434,-1.9445,-1.9464,-1.9505,-1.9518,-1.9567,-1.9573,-1.9633,-1.963,-1.9623,-1.9623,-1.9657,-1.9654,-1.9766,-1.9781,-1.9689,-1.9689,-1.969,0,-1.9219,-1.9254,-1.9289,-1.9312,-1.933,-1.9368,-1.9392,-1.9402,-1.9427,-1.9464,-1.9491,-1.9531,-1.9564,-1.963,-1.9649,-1.9686,-1.9685,-1.9721,-1.9691,-1.9689,-1.9686,-1.9684,-1.9688,-1.9727,-1.9728,-1.9729,-1.973,0,-1.93,-1.9305,-1.934,-1.9378,-1.9407,-1.9437,-1.9466,-1.9486,-1.9499,-1.9528,-1.957,-1.9596,-1.9646,-1.9687,-1.9725,-1.9742,-1.9739,-1.9739,-1.9749,-1.9749,-1.9744,-1.9748,-1.9639,-1.9737,-1.9736,-1.9735,-1.9735,-1.9735,-1.9357,-1.9388,-1.9417,-1.9457,-1.948,-1.9507,-1.9538,-1.9554,-1.959,-1.9632,-1.9635,-1.9681,-1.971,-1.9761,-1.9781,-1.9817,-1.9806,-1.9821,-1.9825,-1.9828,-1.9831,-1.9737,-1.9824,-1.9823,-1.9823,-1.9823,-1.9823,0,-1.9438,-1.9457,-1.9493,-1.9534,-1.9565,-1.9559,-1.9591,-1.9617,-1.9658,-1.9685,-1.9718,-1.9767,-1.9806,-1.9828,-1.9867,-1.9892,-1.9891,-1.9902,-1.99,-1.9905,-1.9838,-1.9826,-1.9902,-1.9902,-1.9902,-1.9902,-1.9902,-1.9902,-1.9484,-1.9536,-1.9545,-1.9609,-1.9627,-1.9672,-1.9691,-1.9716,-1.9739,-1.9793,-1.9826,-1.984,-1.9866,-1.9907,-1.9943,-1.9948,-1.9963,-1.9975,-1.998,-1.9917,-1.9909,-1.9901,-1.989,-1.9978,-1.9978,-2.0043,-2.0044,-2.0044]}]]